| time (UTC) | temp C | wind direction | speed KPH | gust KPH | rain 1hr cm | rain 24hr cm | rain mn cm | humidity % | barometer mb |
| 20260507085351 | 15 | 116 | 4.8 | 9.7 | 0.00 | 0.00 | 0.00 | 49 | 1018.4 |
| 20260507085230 | 16 | 332 | 3.2 | 9.7 | 0.00 | 0.00 | 0.00 | 50 | 1018.4 |
| 20260507084352 | 15 | 117 | 1.6 | 1.6 | 0.00 | 0.00 | 0.00 | 51 | 1018.4 |
| 20260507083726 | 15 | 81 | 3.2 | 8.0 | 0.00 | 0.00 | 0.00 | 52 | 1018.4 |
| 20260507083353 | 15 | 79 | 1.6 | 4.8 | 0.00 | 0.00 | 0.00 | 51 | 1018.4 |
| 20260507082345 | 15 | 284 | 3.2 | 8.0 | 0.00 | 0.00 | 0.00 | 53 | 1018.4 |
| 20260507082223 | 14 | 213 | 0.0 | 1.6 | 0.00 | 0.00 | 0.00 | 53 | 1018.3 |
| 20260507081345 | 14 | 298 | 1.6 | 4.8 | 0.00 | 0.00 | 0.00 | 53 | 1018.3 |
| 20260507080730 | 14 | 348 | 0.0 | 1.6 | 0.00 | 0.00 | 0.00 | 53 | 1018.3 |
| 20260507080346 | 14 | 305 | 3.2 | 4.8 | 0.00 | 0.00 | 0.00 | 53 | 1018.3 |
| 20260507075347 | 13 | 297 | 0.0 | 3.2 | 0.00 | 0.00 | 0.00 | 54 | 1018.4 |
| 20260507075226 | 14 | 310 | 1.6 | 3.2 | 0.00 | 0.00 | 0.00 | 54 | 1018.4 |
| 20260507074349 | 13 | 351 | 0.0 | 0.0 | 0.00 | 0.00 | 0.00 | 54 | 1018.3 |
| 20260507073723 | 14 | 291 | 1.6 | 4.8 | 0.00 | 0.00 | 0.00 | 54 | 1018.3 |
| 20260507073349 | 14 | 251 | 4.8 | 9.7 | 0.00 | 0.00 | 0.00 | 54 | 1018.3 |
| 20260507072351 | 13 | 215 | 0.0 | 0.0 | 0.00 | 0.00 | 0.00 | 57 | 1018.4 |
| 20260507072230 | 13 | 55 | 0.0 | 0.0 | 0.00 | 0.00 | 0.00 | 57 | 1018.3 |
| 20260507071352 | 13 | 312 | 0.0 | 0.0 | 0.00 | 0.00 | 0.00 | 57 | 1018.3 |
| 20260507070726 | 12 | 330 | 1.6 | 1.6 | 0.00 | 0.00 | 0.00 | 58 | 1018.4 |
| 20260507070352 | 12 | 246 | 1.6 | 1.6 | 0.00 | 0.00 | 0.00 | 59 | 1018.4 |
| 20260507065344 | 12 | 353 | 1.6 | 4.8 | 0.00 | 0.00 | 0.00 | 59 | 1018.4 |
| 20260507065223 | 12 | 316 | 1.6 | 3.2 | 0.00 | 0.00 | 0.00 | 58 | 1018.4 |
| 20260507064345 | 12 | 323 | 3.2 | 3.2 | 0.00 | 0.00 | 0.00 | 59 | 1018.3 |
| 20260507063729 | 12 | 327 | 1.6 | 3.2 | 0.00 | 0.00 | 0.00 | 60 | 1018.3 |
| 20260507063345 | 12 | 357 | 1.6 | 3.2 | 0.00 | 0.00 | 0.00 | 61 | 1018.3 |
| 20260507062347 | 12 | 0 | 1.6 | 3.2 | 0.00 | 0.00 | 0.00 | 62 | 1018.4 |
| 20260507062226 | 12 | 3 | 1.6 | 4.8 | 0.00 | 0.00 | 0.00 | 62 | 1018.3 |
| 20260507061348 | 11 | 318 | 1.6 | 1.6 | 0.00 | 0.00 | 0.00 | 64 | 1018.3 |
| 20260507060723 | 11 | 316 | 1.6 | 3.2 | 0.00 | 0.00 | 0.00 | 63 | 1018.4 |
| 20260507060349 | 11 | 9 | 0.0 | 0.0 | 0.00 | 0.00 | 0.00 | 65 | 1018.3 |
| 20260507055350 | 11 | 253 | 0.0 | 0.0 | 0.00 | 0.00 | 0.00 | 67 | 1018.4 |
| 20260507055229 | 10 | 270 | 0.0 | 1.6 | 0.00 | 0.00 | 0.00 | 67 | 1018.4 |
| 20260507054352 | 10 | 301 | 3.2 | 4.8 | 0.00 | 0.00 | 0.00 | 67 | 1018.3 |
| 20260507053726 | 10 | 322 | 1.6 | 4.8 | 0.00 | 0.00 | 0.00 | 69 | 1018.3 |
| 20260507053352 | 10 | 266 | 0.0 | 0.0 | 0.00 | 0.00 | 0.00 | 69 | 1018.2 |
| 20260507052344 | 9 | 281 | 1.6 | 1.6 | 0.00 | 0.00 | 0.00 | 70 | 1018.3 |
| 20260507052223 | 9 | 278 | 3.2 | 4.8 | 0.00 | 0.00 | 0.00 | 70 | 1018.3 |
| 20260507051345 | 9 | 280 | 1.6 | 1.6 | 0.00 | 0.00 | 0.00 | 71 | 1018.2 |
| 20260507050729 | 9 | 280 | 0.0 | 1.6 | 0.00 | 0.00 | 0.00 | 72 | 1018.1 |
| 20260507050345 | 9 | 293 | 0.0 | 3.2 | 0.00 | 0.00 | 0.00 | 73 | 1018.0 |
| 20260507045346 | 8 | 289 | 0.0 | 0.0 | 0.00 | 0.00 | 0.00 | 73 | 1018.0 |
| 20260507045225 | 8 | 303 | 0.0 | 0.0 | 0.00 | 0.00 | 0.00 | 74 | 1018.0 |
| 20260507044347 | 8 | 291 | 0.0 | 0.0 | 0.00 | 0.00 | 0.00 | 74 | 1017.9 |
| 20260507043730 | 8 | 319 | 0.0 | 0.0 | 0.00 | 0.00 | 0.00 | 73 | 1017.9 |
| 20260507043347 | 8 | 150 | 0.0 | 0.0 | 0.00 | 0.00 | 0.00 | 74 | 1017.9 |
| 20260507042348 | 8 | 300 | 0.0 | 0.0 | 0.00 | 0.00 | 0.00 | 74 | 1017.7 |
| 20260507042227 | 8 | 300 | 0.0 | 0.0 | 0.00 | 0.00 | 0.00 | 74 | 1017.7 |
| 20260507041349 | 7 | 300 | 0.0 | 0.0 | 0.00 | 0.00 | 0.00 | 74 | 1017.7 |
| 20260507040723 | 7 | 300 | 0.0 | 0.0 | 0.00 | 0.00 | 0.00 | 74 | 1017.8 |
| 20260507040349 | 7 | 300 | 0.0 | 0.0 | 0.00 | 0.00 | 0.00 | 73 | 1017.7 |
| 20260507035351 | 7 | 198 | 1.6 | 4.8 | 0.00 | 0.00 | 0.00 | 74 | 1017.6 |
| 20260507035229 | 7 | 176 | 1.6 | 3.2 | 0.00 | 0.00 | 0.00 | 74 | 1017.6 |
| 20260507034352 | 7 | 173 | 3.2 | 3.2 | 0.00 | 0.00 | 0.00 | 74 | 1017.6 |
| 20260507033726 | 7 | 192 | 3.2 | 4.8 | 0.00 | 0.00 | 0.00 | 75 | 1017.6 |
| 20260507033352 | 7 | 193 | 3.2 | 4.8 | 0.00 | 0.00 | 0.00 | 75 | 1017.6 |
| 20260507032344 | 7 | 163 | 3.2 | 9.7 | 0.00 | 0.00 | 0.00 | 75 | 1017.5 |
| 20260507032223 | 7 | 178 | 3.2 | 4.8 | 0.00 | 0.00 | 0.00 | 75 | 1017.5 |
| 20260507031345 | 7 | 151 | 1.6 | 4.8 | 0.00 | 0.00 | 0.00 | 75 | 1017.4 |
| 20260507030728 | 7 | 105 | 1.6 | 1.6 | 0.00 | 0.00 | 0.00 | 75 | 1017.4 |
| 20260507030344 | 7 | 170 | 0.0 | 1.6 | 0.00 | 0.00 | 0.00 | 75 | 1017.4 |
| 20260507025346 | 7 | 143 | 1.6 | 3.2 | 0.00 | 0.00 | 0.00 | 75 | 1017.4 |
| 20260507025225 | 7 | 147 | 1.6 | 3.2 | 0.00 | 0.00 | 0.00 | 75 | 1017.4 |
| 20260507024347 | 7 | 144 | 1.6 | 4.8 | 0.00 | 0.00 | 0.00 | 75 | 1017.4 |
| 20260507023731 | 7 | 143 | 0.0 | 0.0 | 0.00 | 0.00 | 0.00 | 75 | 1017.2 |
| 20260507023348 | 7 | 155 | 0.0 | 1.6 | 0.00 | 0.00 | 0.00 | 75 | 1017.2 |
| 20260507022349 | 7 | 187 | 1.6 | 4.8 | 0.00 | 0.00 | 0.00 | 76 | 1017.2 |
| 20260507022228 | 7 | 201 | 1.6 | 3.2 | 0.00 | 0.00 | 0.00 | 76 | 1017.2 |
| 20260507021351 | 7 | 192 | 1.6 | 3.2 | 0.00 | 0.00 | 0.00 | 77 | 1017.1 |
| 20260507020725 | 7 | 127 | 0.0 | 3.2 | 0.00 | 0.00 | 0.00 | 78 | 1017.1 |
| 20260507020351 | 7 | 107 | 0.0 | 1.6 | 0.00 | 0.00 | 0.00 | 78 | 1017.1 |
| 20260507015342 | 7 | 148 | 1.6 | 1.6 | 0.00 | 0.00 | 0.00 | 78 | 1017.1 |
| 20260507015231 | 7 | 152 | 1.6 | 3.2 | 0.00 | 0.00 | 0.00 | 78 | 1017.1 |
| 20260507014344 | 7 | 151 | 0.0 | 1.6 | 0.00 | 0.00 | 0.00 | 78 | 1017.1 |
| 20260507013728 | 7 | 179 | 1.6 | 1.6 | 0.00 | 0.00 | 0.00 | 79 | 1017.1 |
| 20260507013344 | 7 | 148 | 1.6 | 1.6 | 0.00 | 0.00 | 0.00 | 78 | 1017.1 |
| 20260507012346 | 7 | 155 | 0.0 | 0.0 | 0.00 | 0.00 | 0.00 | 79 | 1017.0 |
| 20260507012225 | 7 | 159 | 0.0 | 0.0 | 0.00 | 0.00 | 0.00 | 79 | 1017.0 |
| 20260507011347 | 7 | 172 | 0.0 | 0.0 | 0.00 | 0.00 | 0.00 | 79 | 1016.9 |
| 20260507010731 | 7 | 131 | 0.0 | 0.0 | 0.00 | 0.00 | 0.00 | 79 | 1016.9 |
| 20260507010347 | 7 | 141 | 0.0 | 0.0 | 0.00 | 0.00 | 0.00 | 79 | 1016.9 |
| 20260507005349 | 7 | 189 | 0.0 | 0.0 | 0.00 | 0.00 | 0.00 | 79 | 1017.0 |
| 20260507005228 | 7 | 176 | 0.0 | 0.0 | 0.00 | 0.00 | 0.00 | 79 | 1017.0 |
| 20260507004350 | 7 | 143 | 0.0 | 0.0 | 0.00 | 0.00 | 0.00 | 80 | 1017.0 |
| 20260507003724 | 7 | 143 | 0.0 | 0.0 | 0.00 | 0.00 | 0.00 | 80 | 1017.0 |
| 20260507003351 | 7 | 210 | 0.0 | 0.0 | 0.00 | 0.00 | 0.00 | 80 | 1017.0 |
| 20260507002342 | 7 | 255 | 0.0 | 0.0 | 0.00 | 0.00 | 0.00 | 79 | 1016.9 |
| 20260507002231 | 7 | 255 | 0.0 | 0.0 | 0.00 | 0.00 | 0.00 | 79 | 1017.0 |
| 20260507001343 | 7 | 255 | 0.0 | 0.0 | 0.00 | 0.00 | 0.00 | 79 | 1016.9 |
| 20260507000728 | 7 | 255 | 0.0 | 0.0 | 0.00 | 0.00 | 0.00 | 78 | 1016.8 |
| 20260507000344 | 7 | 255 | 0.0 | 0.0 | 0.00 | 0.00 | 0.00 | 78 | 1016.8 |
| 20260506235346 | 7 | 249 | 0.0 | 0.0 | 0.00 | 0.00 | 0.00 | 79 | 1016.8 |
| 20260506235224 | 7 | 168 | 0.0 | 0.0 | 0.00 | 0.00 | 0.00 | 79 | 1016.7 |
| 20260506234347 | 7 | 148 | 0.0 | 0.0 | 0.00 | 0.00 | 0.00 | 78 | 1016.7 |
| 20260506233731 | 7 | 148 | 0.0 | 0.0 | 0.00 | 0.00 | 0.00 | 77 | 1016.6 |
| 20260506233347 | 7 | 172 | 0.0 | 0.0 | 0.00 | 0.00 | 0.00 | 77 | 1016.6 |
| 20260506232349 | 7 | 172 | 0.0 | 0.0 | 0.00 | 0.00 | 0.00 | 77 | 1016.5 |
| 20260506232228 | 7 | 172 | 0.0 | 0.0 | 0.00 | 0.00 | 0.00 | 76 | 1016.5 |
| 20260506231350 | 7 | 170 | 0.0 | 0.0 | 0.00 | 0.00 | 0.00 | 76 | 1016.5 |
| 20260506230724 | 7 | 277 | 0.0 | 0.0 | 0.00 | 0.00 | 0.00 | 77 | 1016.5 |
| 20260506230350 | 7 | 255 | 0.0 | 0.0 | 0.00 | 0.00 | 0.00 | 77 | 1016.5 |
| 20260506225352 | 8 | 255 | 0.0 | 0.0 | 0.00 | 0.00 | 0.00 | 76 | 1016.4 |
| 20260506225231 | 8 | 255 | 0.0 | 0.0 | 0.00 | 0.00 | 0.00 | 75 | 1016.4 |
| 20260506224343 | 8 | 266 | 0.0 | 1.6 | 0.00 | 0.00 | 0.00 | 74 | 1016.3 |
| 20260506223728 | 8 | 258 | 0.0 | 0.0 | 0.00 | 0.00 | 0.00 | 73 | 1016.3 |
| 20260506223344 | 8 | 258 | 0.0 | 0.0 | 0.00 | 0.00 | 0.00 | 72 | 1016.3 |
| 20260506222346 | 8 | 261 | 0.0 | 1.6 | 0.00 | 0.00 | 0.00 | 71 | 1016.3 |
| 20260506222224 | 8 | 246 | 0.0 | 0.0 | 0.00 | 0.00 | 0.00 | 70 | 1016.3 |
| 20260506221346 | 8 | 219 | 0.0 | 0.0 | 0.00 | 0.00 | 0.00 | 70 | 1016.4 |
| 20260506220731 | 8 | 253 | 0.0 | 0.0 | 0.00 | 0.00 | 0.00 | 71 | 1016.5 |
| 20260506220347 | 8 | 285 | 0.0 | 0.0 | 0.00 | 0.00 | 0.00 | 71 | 1016.5 |
| 20260506215349 | 9 | 153 | 0.0 | 0.0 | 0.00 | 0.00 | 0.00 | 68 | 1016.5 |
| 20260506215228 | 9 | 154 | 0.0 | 0.0 | 0.00 | 0.00 | 0.00 | 68 | 1016.5 |
| 20260506214350 | 8 | 210 | 1.6 | 3.2 | 0.00 | 0.00 | 0.00 | 71 | 1016.5 |
| 20260506213724 | 8 | 195 | 1.6 | 3.2 | 0.00 | 0.00 | 0.00 | 71 | 1016.5 |
| 20260506213350 | 8 | 188 | 0.0 | 1.6 | 0.00 | 0.00 | 0.00 | 72 | 1016.4 |
| 20260506212352 | 8 | 152 | 1.6 | 3.2 | 0.00 | 0.00 | 0.00 | 72 | 1016.4 |
| 20260506212231 | 8 | 147 | 0.0 | 1.6 | 0.00 | 0.00 | 0.00 | 72 | 1016.3 |
| 20260506211343 | 8 | 128 | 0.0 | 1.6 | 0.00 | 0.00 | 0.00 | 72 | 1016.4 |
| 20260506210726 | 8 | 151 | 1.6 | 1.6 | 0.00 | 0.00 | 0.00 | 72 | 1016.3 |
| 20260506210342 | 9 | 154 | 1.6 | 1.6 | 0.00 | 0.00 | 0.00 | 71 | 1016.3 |
| 20260506205344 | 9 | 112 | 0.0 | 0.0 | 0.00 | 0.00 | 0.00 | 71 | 1016.3 |
| 20260506205223 | 9 | 112 | 0.0 | 0.0 | 0.00 | 0.00 | 0.00 | 70 | 1016.3 |
| 20260506204345 | 9 | 132 | 1.6 | 1.6 | 0.00 | 0.00 | 0.00 | 70 | 1016.4 |
| 20260506203730 | 9 | 215 | 0.0 | 1.6 | 0.00 | 0.00 | 0.00 | 70 | 1016.4 |
| 20260506203346 | 9 | 224 | 0.0 | 0.0 | 0.00 | 0.00 | 0.00 | 70 | 1016.3 |
| 20260506202347 | 9 | 200 | 0.0 | 0.0 | 0.00 | 0.00 | 0.00 | 70 | 1016.2 |
| 20260506202226 | 9 | 200 | 0.0 | 0.0 | 0.00 | 0.00 | 0.00 | 70 | 1016.2 |
| 20260506201349 | 9 | 170 | 0.0 | 1.6 | 0.00 | 0.00 | 0.00 | 70 | 1016.2 |
| 20260506200723 | 9 | 162 | 0.0 | 0.0 | 0.00 | 0.00 | 0.00 | 70 | 1016.3 |
| 20260506200349 | 9 | 134 | 0.0 | 0.0 | 0.00 | 0.00 | 0.00 | 70 | 1016.3 |
| 20260506195351 | 10 | 182 | 0.0 | 0.0 | 0.00 | 0.00 | 0.00 | 70 | 1016.3 |
| 20260506195230 | 10 | 182 | 0.0 | 0.0 | 0.00 | 0.00 | 0.00 | 69 | 1016.4 |
| 20260506194352 | 10 | 170 | 0.0 | 0.0 | 0.00 | 0.00 | 0.00 | 69 | 1016.4 |
| 20260506193726 | 10 | 161 | 0.0 | 1.6 | 0.00 | 0.00 | 0.00 | 69 | 1016.4 |
| 20260506193342 | 10 | 193 | 0.0 | 1.6 | 0.00 | 0.00 | 0.00 | 69 | 1016.3 |
| 20260506192344 | 10 | 179 | 0.0 | 0.0 | 0.00 | 0.00 | 0.00 | 69 | 1016.3 |
| 20260506192223 | 10 | 179 | 0.0 | 0.0 | 0.00 | 0.00 | 0.00 | 69 | 1016.2 |
| 20260506191345 | 10 | 104 | 0.0 | 1.6 | 0.00 | 0.00 | 0.00 | 69 | 1016.2 |
| 20260506190729 | 10 | 197 | 0.0 | 0.0 | 0.00 | 0.00 | 0.00 | 69 | 1016.2 |
| 20260506190345 | 10 | 191 | 1.6 | 4.8 | 0.00 | 0.00 | 0.00 | 69 | 1016.2 |
| 20260506185347 | 10 | 132 | 1.6 | 1.6 | 0.00 | 0.00 | 0.00 | 68 | 1016.2 |
| 20260506185226 | 10 | 109 | 0.0 | 1.6 | 0.00 | 0.00 | 0.00 | 68 | 1016.1 |
| 20260506184348 | 10 | 189 | 0.0 | 0.0 | 0.00 | 0.00 | 0.00 | 67 | 1016.1 |
| 20260506183723 | 10 | 217 | 0.0 | 0.0 | 0.00 | 0.00 | 0.00 | 67 | 1016.1 |
| 20260506183349 | 10 | 217 | 0.0 | 0.0 | 0.00 | 0.00 | 0.00 | 66 | 1016.1 |
| 20260506182351 | 10 | 238 | 1.6 | 3.2 | 0.00 | 0.00 | 0.00 | 66 | 1016.0 |
| 20260506182229 | 10 | 245 | 0.0 | 3.2 | 0.00 | 0.00 | 0.00 | 66 | 1016.0 |
| 20260506181352 | 10 | 261 | 1.6 | 4.8 | 0.00 | 0.00 | 0.00 | 65 | 1015.9 |
| 20260506180726 | 11 | 257 | 0.0 | 0.0 | 0.00 | 0.00 | 0.00 | 64 | 1015.9 |
| 20260506180342 | 11 | 258 | 1.6 | 4.8 | 0.00 | 0.00 | 0.00 | 64 | 1015.9 |
| 20260506175344 | 11 | 243 | 1.6 | 1.6 | 0.00 | 0.00 | 0.00 | 63 | 1015.8 |
| 20260506175223 | 11 | 257 | 0.0 | 4.8 | 0.00 | 0.00 | 0.00 | 63 | 1015.8 |
| 20260506174345 | 11 | 237 | 1.6 | 4.8 | 0.00 | 0.00 | 0.00 | 62 | 1015.8 |
| 20260506173729 | 11 | 220 | 1.6 | 4.8 | 0.00 | 0.00 | 0.00 | 62 | 1015.7 |
| 20260506173345 | 11 | 255 | 1.6 | 3.2 | 0.00 | 0.00 | 0.00 | 61 | 1015.6 |
| 20260506172347 | 11 | 254 | 3.2 | 4.8 | 0.00 | 0.00 | 0.00 | 60 | 1015.5 |
| 20260506172226 | 11 | 258 | 0.0 | 4.8 | 0.00 | 0.00 | 0.00 | 60 | 1015.4 |
| 20260506171348 | 11 | 249 | 3.2 | 8.0 | 0.00 | 0.00 | 0.00 | 59 | 1015.4 |
| 20260506170722 | 11 | 250 | 1.6 | 4.8 | 0.00 | 0.00 | 0.00 | 59 | 1015.4 |
| 20260506170349 | 11 | 240 | 1.6 | 1.6 | 0.00 | 0.00 | 0.00 | 59 | 1015.3 |
| 20260506165350 | 12 | 261 | 0.0 | 1.6 | 0.00 | 0.00 | 0.00 | 58 | 1015.3 |
| 20260506165229 | 12 | 275 | 3.2 | 4.8 | 0.00 | 0.00 | 0.00 | 58 | 1015.3 |
| 20260506164351 | 12 | 279 | 3.2 | 8.0 | 0.00 | 0.00 | 0.00 | 56 | 1015.2 |
| 20260506163726 | 12 | 274 | 3.2 | 8.0 | 0.00 | 0.00 | 0.00 | 56 | 1015.1 |
| 20260506163342 | 12 | 231 | 1.6 | 1.6 | 0.00 | 0.00 | 0.00 | 55 | 1015.1 |
| 20260506162343 | 12 | 155 | 0.0 | 0.0 | 0.00 | 0.00 | 0.00 | 56 | 1015.1 |
| 20260506162222 | 12 | 317 | 0.0 | 1.6 | 0.00 | 0.00 | 0.00 | 56 | 1015.1 |
| 20260506161345 | 13 | 241 | 1.6 | 8.0 | 0.00 | 0.00 | 0.00 | 55 | 1015.0 |
| 20260506160728 | 13 | 265 | 8.0 | 9.7 | 0.00 | 0.00 | 0.00 | 55 | 1014.9 |
| 20260506160344 | 13 | 268 | 3.2 | 9.7 | 0.00 | 0.00 | 0.00 | 55 | 1014.9 |
| 20260506155346 | 12 | 289 | 9.7 | 12.9 | 0.00 | 0.00 | 0.00 | 56 | 1014.9 |
| 20260506155225 | 12 | 304 | 3.2 | 12.9 | 0.00 | 0.00 | 0.00 | 56 | 1014.9 |
| 20260506154347 | 12 | 266 | 3.2 | 3.2 | 0.00 | 0.00 | 0.00 | 57 | 1014.9 |
| 20260506153721 | 12 | 288 | 3.2 | 9.7 | 0.00 | 0.00 | 0.00 | 57 | 1014.9 |
| 20260506153347 | 12 | 288 | 4.8 | 9.7 | 0.00 | 0.00 | 0.00 | 56 | 1014.9 |
| 20260506152349 | 13 | 281 | 8.0 | 19.3 | 0.00 | 0.00 | 0.00 | 55 | 1014.9 |
| 20260506152228 | 13 | 305 | 11.3 | 22.5 | 0.00 | 0.00 | 0.00 | 55 | 1014.8 |
| 20260506151350 | 13 | 296 | 4.8 | 8.0 | 0.00 | 0.00 | 0.00 | 54 | 1014.7 |
| 20260506150724 | 13 | 260 | 3.2 | 4.8 | 0.00 | 0.00 | 0.00 | 55 | 1014.7 |
| 20260506150351 | 13 | 268 | 3.2 | 8.0 | 0.00 | 0.00 | 0.00 | 56 | 1014.7 |
| 20260506145342 | 13 | 298 | 4.8 | 14.5 | 0.00 | 0.00 | 0.00 | 56 | 1014.8 |
| 20260506145221 | 13 | 309 | 4.8 | 8.0 | 0.00 | 0.00 | 0.00 | 55 | 1014.8 |
| 20260506144343 | 13 | 296 | 8.0 | 12.9 | 0.00 | 0.00 | 0.00 | 55 | 1014.7 |
| 20260506143728 | 13 | 303 | 4.8 | 9.7 | 0.00 | 0.00 | 0.00 | 56 | 1014.7 |
| 20260506143344 | 13 | 287 | 4.8 | 16.1 | 0.00 | 0.00 | 0.00 | 55 | 1014.7 |
| 20260506142345 | 13 | 266 | 4.8 | 14.5 | 0.00 | 0.00 | 0.00 | 57 | 1014.8 |
| 20260506142224 | 13 | 279 | 9.7 | 11.3 | 0.00 | 0.00 | 0.00 | 57 | 1014.8 |
| 20260506141347 | 13 | 283 | 4.8 | 9.7 | 0.00 | 0.00 | 0.00 | 56 | 1014.8 |
| 20260506140721 | 13 | 269 | 4.8 | 12.9 | 0.00 | 0.00 | 0.00 | 57 | 1014.8 |
| 20260506140347 | 13 | 270 | 8.0 | 16.1 | 0.00 | 0.00 | 0.00 | 57 | 1014.8 |
| 20260506135349 | 13 | 306 | 4.8 | 8.0 | 0.00 | 0.00 | 0.00 | 58 | 1014.7 |
| 20260506135228 | 13 | 290 | 1.6 | 9.7 | 0.00 | 0.00 | 0.00 | 58 | 1014.7 |
| 20260506134350 | 12 | 233 | 8.0 | 11.3 | 0.00 | 0.00 | 0.00 | 59 | 1014.7 |
| 20260506133724 | 12 | 270 | 4.8 | 9.7 | 0.00 | 0.00 | 0.00 | 58 | 1014.8 |
| 20260506133350 | 12 | 266 | 3.2 | 4.8 | 0.00 | 0.00 | 0.00 | 59 | 1014.8 |
| 20260506132342 | 13 | 296 | 4.8 | 9.7 | 0.00 | 0.00 | 0.00 | 58 | 1014.8 |
| 20260506132221 | 13 | 287 | 3.2 | 12.9 | 0.00 | 0.00 | 0.00 | 58 | 1014.8 |
| 20260506131343 | 13 | 254 | 8.0 | 9.7 | 0.00 | 0.00 | 0.00 | 57 | 1014.7 |
| 20260506130727 | 13 | 254 | 0.0 | 12.9 | 0.00 | 0.00 | 0.00 | 57 | 1014.7 |
| 20260506130343 | 13 | 226 | 3.2 | 4.8 | 0.00 | 0.00 | 0.00 | 58 | 1014.8 |
| 20260506125345 | 13 | 275 | 3.2 | 8.0 | 0.00 | 0.00 | 0.00 | 60 | 1014.8 |
| 20260506125224 | 13 | 284 | 4.8 | 11.3 | 0.00 | 0.00 | 0.00 | 59 | 1014.8 |
| 20260506124346 | 12 | 291 | 4.8 | 8.0 | 0.00 | 0.00 | 0.00 | 61 | 1014.9 |
| 20260506123721 | 12 | 223 | 4.8 | 9.7 | 0.00 | 0.00 | 0.00 | 62 | 1014.9 |
| 20260506123347 | 12 | 295 | 4.8 | 9.7 | 0.00 | 0.00 | 0.00 | 62 | 1014.9 |
| 20260506122349 | 12 | 292 | 8.0 | 9.7 | 0.00 | 0.00 | 0.00 | 61 | 1014.9 |
| 20260506122227 | 12 | 283 | 9.7 | 14.5 | 0.00 | 0.00 | 0.00 | 60 | 1015.0 |
| 20260506121350 | 12 | 265 | 9.7 | 12.9 | 0.00 | 0.00 | 0.00 | 59 | 1015.0 |
| 20260506120724 | 12 | 246 | 3.2 | 9.7 | 0.00 | 0.00 | 0.00 | 60 | 1015.0 |
| 20260506120350 | 12 | 291 | 9.7 | 14.5 | 0.00 | 0.00 | 0.00 | 59 | 1015.0 |
| 20260506115342 | 12 | 278 | 9.7 | 12.9 | 0.00 | 0.00 | 0.00 | 60 | 1015.1 |
| 20260506115221 | 12 | 302 | 8.0 | 16.1 | 0.00 | 0.00 | 0.00 | 60 | 1015.1 |
| 20260506114343 | 12 | 266 | 1.6 | 3.2 | 0.00 | 0.00 | 0.00 | 60 | 1015.1 |
| 20260506113727 | 12 | 288 | 1.6 | 9.7 | 0.00 | 0.00 | 0.00 | 61 | 1015.2 |
| 20260506113343 | 12 | 298 | 4.8 | 11.3 | 0.00 | 0.00 | 0.00 | 61 | 1015.2 |
| 20260506112345 | 12 | 280 | 4.8 | 9.7 | 0.00 | 0.00 | 0.00 | 60 | 1015.3 |
| 20260506112224 | 12 | 292 | 1.6 | 4.8 | 0.00 | 0.00 | 0.00 | 60 | 1015.3 |
| 20260506111346 | 12 | 306 | 4.8 | 14.5 | 0.00 | 0.00 | 0.00 | 59 | 1015.3 |
| 20260506110731 | 12 | 268 | 1.6 | 3.2 | 0.00 | 0.00 | 0.00 | 60 | 1015.3 |
| 20260506110347 | 12 | 250 | 3.2 | 4.8 | 0.00 | 0.00 | 0.00 | 60 | 1015.4 |
| 20260506105348 | 12 | 249 | 8.0 | 14.5 | 0.00 | 0.00 | 0.00 | 59 | 1015.4 |
| 20260506105227 | 12 | 281 | 12.9 | 16.1 | 0.00 | 0.00 | 0.00 | 59 | 1015.4 |
| 20260506104349 | 12 | 162 | 1.6 | 1.6 | 0.00 | 0.00 | 0.00 | 59 | 1015.4 |
| 20260506103724 | 12 | 242 | 3.2 | 9.7 | 0.00 | 0.00 | 0.00 | 60 | 1015.4 |
| 20260506103350 | 12 | 281 | 0.0 | 9.7 | 0.00 | 0.00 | 0.00 | 60 | 1015.4 |
| 20260506102341 | 12 | 220 | 0.0 | 3.2 | 0.00 | 0.00 | 0.00 | 62 | 1015.4 |
| 20260506102231 | 12 | 99 | 1.6 | 1.6 | 0.00 | 0.00 | 0.00 | 62 | 1015.4 |
| 20260506101343 | 12 | 293 | 8.0 | 9.7 | 0.00 | 0.00 | 0.00 | 62 | 1015.4 |
| 20260506100727 | 12 | 293 | 3.2 | 4.8 | 0.00 | 0.00 | 0.00 | 64 | 1015.4 |
| 20260506100343 | 11 | 295 | 8.0 | 9.7 | 0.00 | 0.00 | 0.00 | 63 | 1015.4 |
| 20260506095344 | 11 | 220 | 1.6 | 4.8 | 0.00 | 0.00 | 0.00 | 64 | 1015.4 |
| 20260506095223 | 11 | 275 | 1.6 | 3.2 | 0.00 | 0.00 | 0.00 | 63 | 1015.4 |
| 20260506094345 | 11 | 253 | 0.0 | 1.6 | 0.00 | 0.00 | 0.00 | 64 | 1015.5 |
| 20260506093729 | 11 | 285 | 4.8 | 4.8 | 0.00 | 0.00 | 0.00 | 66 | 1015.5 |
| 20260506093345 | 11 | 38 | 0.0 | 1.6 | 0.00 | 0.00 | 0.00 | 67 | 1015.6 |
| 20260506092347 | 11 | 279 | 0.0 | 8.0 | 0.00 | 0.00 | 0.00 | 68 | 1015.5 |
| 20260506092226 | 11 | 280 | 0.0 | 4.8 | 0.00 | 0.00 | 0.00 | 68 | 1015.6 |
| 20260506091348 | 10 | 295 | 3.2 | 4.8 | 0.00 | 0.00 | 0.00 | 70 | 1015.5 |
| 20260506090722 | 10 | 295 | 3.2 | 4.8 | 0.00 | 0.00 | 0.00 | 70 | 1015.5 |
| 20260506090349 | 10 | 275 | 3.2 | 8.0 | 0.00 | 0.00 | 0.00 | 72 | 1015.5 |